FENGYUN 1C DEB, 32323

Orbit data source: Space-Track

FENGYUN 1C DEB, 32323 is space debris in SSO originally from a launch on Mon, 10 May 1999 UTC launched from the Taiyaun Space Center, China (TSC). Fengyun 1C debris stems from the Chinese weather satellite Fengyun-1C, which was intentionally destroyed by a Chinese anti-satellite missile in 2007. This event dramatically increased the amount of space debris, with thousands of trackable fragments posing hazards to satellites and human spaceflight. The Fengyun 1C debris cloud has become a focal point in discussions about space sustainability and the need for international regulations to prevent the creation of new debris.

Loading next visibility...
Identifier
32323, 1999-025CXQ
Orbit
SSO
Country
Flag of CNCN / PRC
Related business
Manufacturer
Unknown
Mission
Spacecraft
Bus & Motor
Unknown
Mass
Unknown
Launch date (UTC)
1999-05-10 (27 years ago)
Launch vehicle
Unknown
Launch site
Taiyaun Space Center, China (TSC)
Object type
Payload
Rocket body
Debris
Shape & HBR
Unknown shape, 0.1 m
Radar Cross Section
Small (<0.1 m²)

Expand to show TLE details & history
Last TLE update: 9 hours ago

TLE from 9 hours ago
0 FENGYUN 1C DEB
1 32323U 99025CXQ 26095.34271158  .00005120  00000-0  33174-2 0  9999
2 32323  98.5741 235.9473 0152120 252.3902 106.0599 13.97600925618564
Epoch: 2026-04-05T08:13Z
TLE epoch observation values (Epoch: 2026-04-05T08:13:30.280Z)
Latitude
0.00003°
Longitude
-81.07837°
Altitude
937.192 km
Speed
7.367 km/s
True Right ascension
15h 43m 47s
True Declination
0° 00' 00"
Sunlit
Object was in full shadow at epoch
Visualization orbit readout
Latitude
Unknown
Longitude
Unknown
Altitude
Unknown
Speed
Unknown
Apparent Right ascension
Unknown
Apparent Declination
Unknown
Sunlit
N/A
Visualization observer readout
Local Sidereal Time
23:21:57
Azimuth
Unknown
Elevation
Unknown
Doppler factor
Unknown
Orbital elements
Apogee altitude
1,010 km
Perigee altitude
788.592 km
Semi-major axis
7,277.433 km
Eccentricity
0.01521
Inclination
98.5741°
RAAN
235.9473°
Arg. of periapsis
252.3902°
True anomaly
107.72603°
Mean anomaly
106.0599°
Eccentric anomaly
106.89387°
Mean motion
3.49604 °/min
Orbital period
102.97 mins
BSTAR
0.0033174
Loading maneuver chart data...
Computing Atmospheric mass density...

Documentation

Showing up to 5 results
|